Weather History for KDEN - May, 2012

Change the Weather History Date:

Monday, May 7, 2012

  Actual Average Record
Temperature  
Mean Temperature 44 °F 54 °F  
Max Temperature 47 °F 68 °F 87 °F (1989)
Min Temperature 41 °F 40 °F 23 °F (1978)
Degree Days  
Heating Degree Days 21 11  
Month to date heating degree days 40 86  
Since 1 July heating degree days 5255 5817  
Cooling Degree Days 0 0  
Month to date cooling degree days 8 0  
Year to date cooling degree days 14 1  
Moisture  
Dew Point 38 °F    
Average Humidity 80    
Maximum Humidity 89    
Minimum Humidity 71    
Precipitation  
Precipitation 0.12 in 0.07 in 2.95 in (1969)
Month to date precipitation 0.19 0.49  
Year to date precipitation 2.77 3.90  
Snow  
Snow 0.00 in - - ()
Month to date snowfall 0  
Since 1 July snowfall 55.6  
Snow Depth 0.00 in    
Sea Level Pressure  
Sea Level Pressure 30.22 in    
Wind  
Wind Speed 6 mph (East)    
Max Wind Speed 13 mph    
Max Gust Speed 16 mph    
Visibility 9 miles    
Events Rain    
T = Trace of Precipitation, MM = Missing Value Source: NWS Daily Summary

Daily Weather History Graph

Daily Weather History Graph

Search for Another Location

Airport or City:

Trip Planner

Search our weather history database for the weather conditions in past years. The results will help you decide how hot, cold, wet, or windy it might be!

Date:

Astronomy

May. 07, 2012 Rise Set
Actual Time 5:51 AM MDT 7:59 PM MDT
Civil Twilight 5:21 AM MDT 8:29 PM MDT
Nautical Twilight 4:44 AM MDT 9:06 PM MDT
Astronomical Twilight 4:05 AM MDT 9:46 PM MDT
Moon 10:13 PM MDT (5/7) 6:59 AM MDT (5/7)
Length of Visible Light 15h 08m
Length of Day
14h 08m
Waning Gibbous, 96% of the Moon is Illuminated
May 7
Waning Gibbous
May 12
Last Quarter
May 20
New
May 28
First Quarter
Jun 4
Full

Hourly Weather History & Observations

Time (MDT) Temp. Windchill Dew Point Humidity Pressure Visibility Wind Dir Wind Speed Gust Speed Precip Events Conditions
12:36 AM 44.6 °F 40.2 °F 39.2 °F 81% 30.27 in 10.0 mi NNW 8.1 mph - N/A   Mostly Cloudy
12:53 AM 43.0 °F 38.2 °F 39.9 °F 89% 30.19 in 10.0 mi NNW 8.1 mph - N/A   Mostly Cloudy
1:53 AM 44.1 °F 40.8 °F 39.9 °F 85% 30.18 in 8.0 mi NNW 5.8 mph - N/A   Overcast
2:30 AM 44.6 °F 40.7 °F 39.2 °F 81% 30.27 in 10.0 mi NW 6.9 mph - 0.00 in Rain Light Rain
2:53 AM 44.1 °F 40.8 °F 37.9 °F 79% 30.17 in 10.0 mi NW 5.8 mph - 0.01 in   Overcast
3:53 AM 44.1 °F 42.5 °F 39.9 °F 85% 30.18 in 10.0 mi SSE 3.5 mph - N/A   Overcast
4:16 AM 44.6 °F 42.2 °F 39.2 °F 81% 30.29 in 2.5 mi South 4.6 mph - 0.00 in Rain Light Rain
4:40 AM 42.8 °F - 37.4 °F 81% 30.29 in 5.0 mi Calm Calm - 0.01 in Rain Light Rain
4:53 AM 43.0 °F 40.3 °F 36.0 °F 76% 30.19 in 7.0 mi East 4.6 mph - 0.01 in Rain Light Rain
5:53 AM 42.1 °F 38.4 °F 37.0 °F 82% 30.21 in 7.0 mi East 5.8 mph - 0.02 in   Overcast
6:53 AM 42.1 °F 38.4 °F 37.9 °F 85% 30.23 in 10.0 mi ENE 5.8 mph - N/A   Overcast
7:53 AM 42.1 °F 36.6 °F 37.0 °F 82% 30.26 in 10.0 mi East 9.2 mph - N/A   Overcast
8:53 AM 42.1 °F 36.1 °F 37.0 °F 82% 30.27 in 10.0 mi ESE 10.4 mph - 0.00 in Rain Light Rain
9:14 AM 42.8 °F 37.5 °F 37.4 °F 81% 30.33 in 10.0 mi East 9.2 mph - 0.00 in Rain Light Rain
9:53 AM 41.0 °F 33.9 °F 37.0 °F 86% 30.29 in 6.0 mi SE 12.7 mph - 0.02 in Rain Light Rain
10:53 AM 42.1 °F 36.1 °F 37.0 °F 82% 30.29 in 9.0 mi ESE 10.4 mph - 0.01 in Rain Light Rain
11:08 AM 42.8 °F 37.5 °F 37.4 °F 81% 30.33 in 5.0 mi SE 9.2 mph - 0.01 in Rain Light Rain
11:53 AM 43.0 °F 39.5 °F 37.0 °F 80% 30.28 in 9.0 mi SSE 5.8 mph - 0.04 in Rain Light Rain
12:32 PM 42.8 °F 41.1 °F 37.4 °F 81% 30.31 in 9.0 mi ESE 3.5 mph - 0.01 in Rain Light Rain
12:53 PM 44.1 °F 40.1 °F 39.0 °F 82% 30.25 in 10.0 mi ESE 6.9 mph - 0.01 in Rain Light Rain
1:53 PM 46.9 °F - 39.9 °F 77% 30.20 in 10.0 mi South 8.1 mph - 0.00 in   Overcast
2:53 PM 46.0 °F 43.9 °F 39.0 °F 76% 30.19 in 10.0 mi West 4.6 mph - N/A   Overcast
3:53 PM 46.9 °F - 37.9 °F 71% 30.17 in 10.0 mi WNW 5.8 mph - N/A   Overcast
4:25 PM 46.4 °F 43.5 °F 37.4 °F 71% 30.22 in 10.0 mi North 5.8 mph - N/A   Overcast
4:53 PM 46.0 °F 43.1 °F 37.9 °F 73% 30.16 in 10.0 mi NE 5.8 mph - N/A   Overcast
5:53 PM 46.9 °F - 41.0 °F 80% 30.15 in 10.0 mi NE 8.1 mph - N/A   Overcast
6:53 PM 46.0 °F 41.4 °F 41.0 °F 83% 30.16 in 10.0 mi ENE 9.2 mph - N/A   Overcast
7:53 PM 46.0 °F 41.0 °F 39.9 °F 79% 30.17 in 10.0 mi ENE 10.4 mph - N/A   Overcast
8:53 PM 45.0 °F - 37.9 °F 76% 30.19 in 10.0 mi Calm Calm - N/A   Overcast
9:53 PM 45.0 °F 43.5 °F 39.0 °F 80% 30.21 in 10.0 mi East 3.5 mph - N/A   Overcast
10:53 PM 45.0 °F 42.6 °F 39.0 °F 80% 30.20 in 10.0 mi ESE 4.6 mph - N/A   Overcast
11:53 PM 45.0 °F - 39.9 °F 82% 30.21 in 10.0 mi Calm Calm - N/A   Overcast